Volver al catálogo

GEESAT 3-08

ActivoCienciaLEO
NORAD 61018·PAYLOAD·🇨🇳 China

Lanzado Sep 5, 2024 desde Taiyuan Satellite Launch Center

Loading…

Próximos Pases (próximas 24 horas)

TLE

ActualizadoSource: Space-Track

Época: Sep 14, 2026, 20:33 UTC

1 61018U 24159H   26257.85640115  .00001555  00000-0  20900-3 0  9999
2 61018  50.0064  27.1335 0027196  78.6123 281.7869 14.84486768110094

Sigue GEESAT 3-08 en tiempo real con AllMySat

Download on the App Store